Location: Batang Balui
(2.7000°N, 113.7833°E)
Time: 03:55:09
(UTC+00:00)

Cosmos 2219 Rocket - Pass Details

Date: 08 February 2023
Orbit: 826 x 848 km, 71.0° (Epoch: 26 March)

Event Time Altitude Azimuth Distance (km) Brightness Sun altitude
Exits shadow 20:43:00 - 11° (N) 2,802 4.9 -28.7°
Reaches altitude 10° 20:44:04 10° 17° (NNE) 2,458 4.6 -28.5°
Maximum altitude 20:48:49 28° 74° (ENE) 1,541 4.0 -27.3°
Drops below altitude 10° 20:53:34 10° 132° (SE) 2,467 5.4 -26.2°
Sets 20:56:21 0° 143° (SE) 3,403 6.1 -25.5°
